#timestamp,LO_Frequency,Hit,StdDev 
1541509215.8,286046999.4,N
1541509235.7,286046999.2,N
1541509255.5,286046998.1,N
1541509275.3,286046998.6,N
1541509295.2,286047000.1,N
1541509315.0,286047000.0,N
1541509315.9,286047000.0,N
1541509335.7,286047002.2,N
1541509355.6,286047002.3,N
1541509375.4,286047002.7,N
1541509395.3,286047001.0,N
1541509415.1,286046998.5,N
1541509416.0,286046998.5,N
1541509435.8,286046998.6,N
1541509455.7,286047000.9,N
1541509475.5,286046998.2,N
1541509495.4,286046998.4,N
1541509515.2,286047001.2,N
1541509535.0,286046998.5,N
1541509535.9,286046998.5,N
1541509555.8,286046998.1,N
1541509575.5,286047000.7,N
1541509595.4,286047000.8,N
1541509615.2,286047001.2,N
1541509635.0,286046998.7,N
1541509635.9,286046998.7,N
1541509655.8,286046997.4,N
1541509675.6,286046996.7,N
1541509695.4,286046996.6,N
1541509715.3,286046999.3,N
1541509735.1,286046998.2,N
1541509755.9,286046998.1,N
1541509775.6,286047001.2,N
1541509795.4,286047000.8,N
1541509815.2,286046998.9,N
1541509835.1,286046998.9,N
1541509836.0,286046998.9,N
1541509855.8,286046999.3,N
1541509875.6,286046998.9,N
1541509895.5,286046999.1,N
1541509915.3,286046997.7,N
1541509935.2,286046997.8,N
1541509955.9,286046995.5,Y
1541509975.7,286046997.9,P
1541509995.6,286046995.2,P
1541510015.4,286046995.9,N
1541510035.3,286046993.5,Y
1541510055.1,286046998.9,P
1541510056.0,286046998.9,N
1541510075.8,286046999.3,N
1541510095.7,286046999.2,N
1541510115.5,286046998.8,N
1541510135.3,286046998.2,N
1541510155.2,286046999.4,N
1541510175.0,286046999.6,N
1541510175.9,286046999.6,N
1541510195.8,286046996.6,Y
1541510215.6,286046998.3,P
1541510235.4,286046999.2,N
1541510255.3,286046996.9,P
1541510275.1,286046997.8,N
1541510295.8,286046997.3,Y
1541510315.7,286046998.3,P
1541510335.5,286047000.6,P
1541510355.4,286047000.5,N
1541510375.2,286047000.5,N
1541510395.0,286047000.4,N
1541510395.9,286047000.4,N
1541510415.8,286047001.0,N
1541510435.6,286046998.1,N
1541510455.4,286046999.1,N
1541510475.3,286046999.1,N
1541510495.1,286046998.5,N
1541510515.9,286046999.0,N
1541510535.7,286046998.6,N
1541510555.5,286046998.7,N
1541510575.4,286046998.5,N
1541510595.2,286047000.3,N
1541510615.0,286047001.0,N
1541510615.9,286047001.0,N
1541510635.8,286046999.4,N
1541510655.6,286046998.8,N
1541510675.5,286046999.5,N
1541510695.3,286046996.7,Y
1541510715.1,286046999.0,P
1541510735.9,286046998.7,P
1541510755.7,286046999.5,N
1541510775.6,286046998.7,Y
1541510795.4,286047000.2,P
1541510815.2,286047000.6,N
1541510835.1,286047000.6,N
1541510836.0,286047000.6,N
1541510855.8,286047002.5,Y
1541510875.7,286047002.8,P
1541510895.5,286046999.9,N
1541510915.3,286047002.6,N
1541510935.2,286047001.5,N
1541510955.9,286047001.8,N
1541510975.7,286047002.4,N
1541510995.6,286047002.2,N
1541511015.4,286047002.6,N
1541511035.2,286046999.7,N
1541511055.1,286047002.5,N
1541511056.0,286047002.5,N
1541511075.8,286047000.0,N
1541511095.7,286046998.6,N
1541511115.5,286046999.3,N
1541511135.3,286046998.2,N
1541511155.2,286047000.6,N
1541511175.0,286047001.1,N
1541511175.9,286047001.1,N
1541511195.8,286046998.3,N
1541511215.6,286046998.3,N
1541511235.4,286046998.4,N
1541511255.3,286046998.5,N
1541511275.1,286046998.4,N
1541511295.9,286046998.9,N
1541511315.7,286046996.5,N
1541511335.5,286046997.1,N
1541511355.4,286046997.8,N
1541511375.2,286046997.3,N
1541511395.1,286046997.7,N
1541511396.0,286046997.7,N
1541511415.8,286046997.2,N
1541511435.6,286046997.1,N
1541511455.5,286046995.2,N
1541511475.3,286046995.1,N
1541511495.1,286046995.7,N
1541511515.9,286046996.3,N
1541511535.7,286046996.0,N
1541511555.6,286046995.7,N
1541511575.4,286046993.6,Y
1541511595.2,286046997.8,P
1541511615.1,286046995.0,P
1541511616.0,286046995.0,P
1541511635.8,286046995.4,Y
1541511655.6,286046998.2,P
1541511675.5,286046998.2,N
1541511695.3,286047001.2,N
1541511715.2,286046998.6,N
1541511735.9,286046998.5,N
1541511755.7,286047000.8,N
1541511775.6,286046998.5,N
1541511795.4,286047000.0,N
1541511815.2,286047000.6,N
1541511835.1,286047000.4,N
1541511836.0,286047000.4,N
1541511855.8,286047001.2,N
1541511875.7,286046998.1,N
1541511895.5,286046998.4,N
1541511915.3,286046999.0,N
1541511935.2,286046998.7,N
1541511955.9,286046999.3,N
1541511975.3,286046998.3,N
1541511995.2,286046999.3,N
1541512015.0,286046998.3,N
1541512015.9,286046998.3,N
1541512035.8,286047000.8,N
1541512055.6,286047000.8,N
1541512075.4,286046998.1,N
1541512095.3,286046998.1,N
1541512115.1,286047000.5,N
1541512135.8,286047000.1,N
1541512155.7,286047001.8,N
1541512175.5,286047002.4,N
1541512195.4,286047001.4,N
1541512245.2,286047003.1,E
1541512255.1,286047001.8,N
1541512275.9,286047000.4,P
1541512295.7,286046999.9,N
1541512315.5,286047000.5,N
1541512335.4,286047001.0,N
1541512355.2,286047000.6,N
1541512375.1,286047000.0,N
1541512376.0,286047000.0,N
1541512395.8,286047002.8,Y
1541512415.6,286047002.8,P
1541512435.5,286047001.9,N
1541512455.3,286047001.5,N
1541512475.2,286047001.8,N
1541512495.9,286047000.2,N
1541512515.7,286047000.4,N
1541512535.6,286046999.8,N
1541512555.4,286047000.3,N
1541512575.2,286047000.1,N
1541512595.1,286046999.9,N
1541512596.0,286046999.9,N
1541512615.8,286047002.8,N
1541512635.7,286047000.9,N
1541512655.5,286047000.1,N
1541512675.3,286046999.7,N
1541512695.2,286047002.8,N
1541512715.0,286046999.8,N
1541512715.9,286046999.8,N
1541512735.8,286046999.9,N
1541512755.6,286047002.5,N
1541512775.4,286047000.0,N
1541512795.3,286047000.1,N
